Fairmont, MN

11:35 PM CDT on April 27, 2017 (GMT -0500)
Fairmont Municipal

Weather History for KFRM - March, 2014

Change the Weather History Date:

Thursday, March 13, 2014

  Actual Average Record
Temperature  
Mean Temperature 42 °F -  
Max Temperature 57 °F 37 °F 69 °F (2012)
Min Temperature 28 °F 21 °F -11 °F (1975)
Degree Days  
Heating Degree Days 22    
Moisture  
Dew Point 31 °F    
Average Humidity 69    
Maximum Humidity 86    
Minimum Humidity 48    
Precipitation  
Precipitation 0.00 in - - ()
Sea Level Pressure  
Sea Level Pressure 29.81 in    
Wind  
Wind Speed 13 mph (SSW)    
Max Wind Speed 17 mph    
Max Gust Speed 23 mph    
Visibility 10 miles    
Events      
Averages and records for this station are not official NWS values.
T = Trace of Precipitation, MM = Missing Value Source: NWS Daily Summary

Daily Weather History Graph

Daily Weather History Graph

Search for Another Location

Airport or City:

Trip Planner

Search our weather history database for the weather conditions in past years. The results will help you decide how hot, cold, wet, or windy it might be!

Date:

Astronomy

Mar. 13, 2014 Rise Set
Actual Time 7:33 AM CDT 7:21 PM CDT
Civil Twilight 7:04 AM CDT 7:50 PM CDT
Nautical Twilight 6:31 AM CDT 8:23 PM CDT
Astronomical Twilight 5:57 AM CDT 8:57 PM CDT
Moon 4:44 PM CDT (3/13) 5:45 AM CDT (3/13)
Length of Visible Light 12h 45m
Length of Day
11h 48m
Waxing Gibbous, 91% of the Moon is Illuminated
Mar 13
Waxing Gibbous
Mar 16
Full
Mar 23
Last Quarter
Mar 30
New
Apr 7
First Quarter

Hourly Weather History & Observations

Time (CDT) Temp. Windchill Dew Point Humidity Pressure Visibility Wind Dir Wind Speed Gust Speed Precip Events Conditions
12:15 AM 28.4 °F 19.1 °F 23.0 °F 80% 30.04 in 10.0 mi South 10.4 mph - N/A   Overcast
12:35 AM 30.2 °F 21.3 °F 24.8 °F 80% 30.03 in 10.0 mi South 10.4 mph - N/A   Overcast
12:55 AM 30.2 °F 19.8 °F 24.8 °F 80% 30.02 in 10.0 mi South 13.8 mph - N/A   Overcast
1:15 AM 30.2 °F 20.8 °F 24.8 °F 80% 30.01 in 10.0 mi South 11.5 mph - N/A   Overcast
1:35 AM 30.2 °F 20.2 °F 24.8 °F 80% 30.00 in 10.0 mi South 12.7 mph - N/A   Overcast
1:55 AM 30.2 °F 19.8 °F 24.8 °F 80% 30.00 in 10.0 mi South 13.8 mph - N/A   Overcast
2:15 AM 30.2 °F 19.3 °F 24.8 °F 80% 29.99 in 10.0 mi South 15.0 mph - N/A   Overcast
2:35 AM 30.2 °F 19.8 °F 24.8 °F 80% 29.99 in 10.0 mi South 13.8 mph - N/A   Overcast
2:55 AM 30.2 °F 18.5 °F 24.8 °F 80% 29.97 in 10.0 mi South 17.3 mph - N/A   Overcast
3:15 AM 30.2 °F 19.3 °F 24.8 °F 80% 29.97 in 10.0 mi South 15.0 mph - N/A   Overcast
3:35 AM 30.2 °F 19.3 °F 24.8 °F 80% 29.95 in 10.0 mi South 15.0 mph - N/A   Overcast
3:55 AM 30.2 °F 18.9 °F 24.8 °F 80% 29.94 in 10.0 mi South 16.1 mph 19.6 mph N/A   Overcast
4:15 AM 30.2 °F 18.9 °F 26.6 °F 86% 29.93 in 10.0 mi South 16.1 mph - N/A   Overcast
4:35 AM 30.2 °F 18.9 °F 26.6 °F 86% 29.92 in 10.0 mi South 16.1 mph - N/A   Overcast
4:55 AM 30.2 °F 19.3 °F 26.6 °F 86% 29.92 in 10.0 mi South 15.0 mph - N/A   Overcast
5:15 AM 30.2 °F 19.8 °F 26.6 °F 86% 29.92 in 10.0 mi SSW 13.8 mph - N/A   Overcast
5:35 AM 30.2 °F 19.8 °F 26.6 °F 86% 29.91 in 10.0 mi SSW 13.8 mph - N/A   Scattered Clouds
5:55 AM 30.2 °F 19.8 °F 26.6 °F 86% 29.90 in 10.0 mi SSW 13.8 mph - N/A   Clear
6:15 AM 30.2 °F 19.8 °F 26.6 °F 86% 29.90 in 10.0 mi SSW 13.8 mph - N/A   Clear
6:35 AM 30.2 °F 20.8 °F 26.6 °F 86% 29.90 in 10.0 mi SSW 11.5 mph - N/A   Clear
6:55 AM 30.2 °F 21.9 °F 26.6 °F 86% 29.89 in 10.0 mi SSW 9.2 mph - N/A   Clear
7:15 AM 30.2 °F 21.9 °F 26.6 °F 86% 29.89 in 10.0 mi SW 9.2 mph - N/A   Clear
7:35 AM 30.2 °F 22.6 °F 26.6 °F 86% 29.89 in 10.0 mi SW 8.1 mph - N/A   Clear
7:55 AM 32.0 °F 24.8 °F 26.6 °F 80% 29.88 in 10.0 mi WSW 8.1 mph - N/A   Clear
8:15 AM 32.0 °F 23.6 °F 26.6 °F 80% 29.87 in 10.0 mi WSW 10.4 mph - N/A   Clear
8:35 AM 33.8 °F 25.8 °F 28.4 °F 81% 29.87 in 10.0 mi WSW 10.4 mph - N/A   Clear
8:55 AM 35.6 °F 27.1 °F 28.4 °F 75% 29.88 in 10.0 mi WSW 12.7 mph - N/A   Clear
9:15 AM 37.4 °F 30.3 °F 28.4 °F 70% 29.87 in 10.0 mi WSW 10.4 mph - N/A   Clear
9:35 AM 37.4 °F 30.3 °F 30.2 °F 75% 29.87 in 10.0 mi SW 10.4 mph - N/A   Clear
9:55 AM 39.2 °F 32.5 °F 30.2 °F 70% 29.86 in 10.0 mi WSW 10.4 mph - N/A   Clear
10:15 AM 41.0 °F 34.3 °F 30.2 °F 65% 29.86 in 10.0 mi WSW 11.5 mph - N/A   Clear
10:35 AM 41.0 °F 33.5 °F 30.2 °F 65% 29.85 in 10.0 mi WSW 13.8 mph 18.4 mph N/A   Clear
10:55 AM 42.8 °F 35.8 °F 32.0 °F 66% 29.85 in 10.0 mi WSW 13.8 mph - N/A   Clear
11:15 AM 44.6 °F 38.1 °F 32.0 °F 61% 29.84 in 10.0 mi WSW 13.8 mph - N/A   Clear
11:35 AM 44.6 °F 37.2 °F 33.8 °F 66% 29.84 in 10.0 mi WSW 17.3 mph - N/A   Clear
11:55 AM 44.6 °F 37.4 °F 33.8 °F 66% 29.84 in 10.0 mi WSW 16.1 mph - N/A   Clear
12:15 PM 46.4 °F 39.5 °F 33.8 °F 62% 29.83 in 10.0 mi WSW 17.3 mph - N/A   Clear
12:35 PM 46.4 °F 39.5 °F 35.6 °F 66% 29.82 in 10.0 mi WSW 17.3 mph - N/A   Clear
12:55 PM 48.2 °F - 35.6 °F 62% 29.82 in 10.0 mi WSW 13.8 mph 19.6 mph N/A   Clear
1:15 PM 48.2 °F - 35.6 °F 62% 29.81 in 10.0 mi WSW 15.0 mph - N/A   Clear
1:35 PM 50.0 °F - 35.6 °F 58% 29.81 in 10.0 mi WSW 16.1 mph 23.0 mph N/A   Clear
1:55 PM 51.8 °F - 35.6 °F 54% 29.80 in 10.0 mi WSW 12.7 mph - N/A   Clear
2:15 PM 53.6 °F - 37.4 °F 54% 29.79 in 10.0 mi WSW 13.8 mph - N/A   Clear
2:35 PM 53.6 °F - 37.4 °F 54% 29.78 in 10.0 mi SW 12.7 mph - N/A   Clear
2:55 PM 55.4 °F - 37.4 °F 51% 29.76 in 10.0 mi SW 10.4 mph - N/A   Clear
3:15 PM 55.4 °F - 37.4 °F 51% 29.75 in 10.0 mi SW 11.5 mph - N/A   Clear
3:35 PM 55.4 °F - 37.4 °F 51% 29.75 in 10.0 mi SW 17.3 mph - N/A   Clear
3:55 PM 55.4 °F - 37.4 °F 51% 29.74 in 10.0 mi SW 12.7 mph - N/A   Clear
4:15 PM 55.4 °F - 39.2 °F 54% 29.73 in 10.0 mi SW 12.7 mph - N/A   Clear
4:35 PM 57.2 °F - 39.2 °F 51% 29.72 in 10.0 mi SW 13.8 mph - N/A   Clear
4:55 PM 57.2 °F - 39.2 °F 51% 29.72 in 10.0 mi SW 12.7 mph - N/A   Clear
5:15 PM 57.2 °F - 39.2 °F 51% 29.71 in 10.0 mi SSW 12.7 mph - N/A   Clear
5:35 PM 57.2 °F - 39.2 °F 51% 29.70 in 10.0 mi SSW 10.4 mph - N/A   Clear
5:55 PM 57.2 °F - 37.4 °F 48% 29.69 in 10.0 mi SSW 9.2 mph - N/A   Clear
6:15 PM 55.4 °F - 39.2 °F 54% 29.68 in 10.0 mi South 10.4 mph - N/A   Clear
6:35 PM 53.6 °F - 39.2 °F 58% 29.68 in 10.0 mi South 9.2 mph - N/A   Clear
6:55 PM 51.8 °F - 39.2 °F 62% 29.68 in 10.0 mi South 9.2 mph - N/A   Clear
7:15 PM 50.0 °F - 35.6 °F 58% 29.67 in 10.0 mi South 9.2 mph - N/A   Clear
7:35 PM 46.4 °F 41.1 °F 35.6 °F 66% 29.66 in 10.0 mi South 11.5 mph - N/A   Clear
7:55 PM 44.6 °F 38.8 °F 35.6 °F 71% 29.66 in 10.0 mi South 11.5 mph - N/A   Clear
8:15 PM 42.8 °F 37.5 °F 33.8 °F 70% 29.65 in 10.0 mi South 9.2 mph - N/A   Clear
8:35 PM 42.8 °F 36.6 °F 33.8 °F 70% 29.65 in 10.0 mi South 11.5 mph - N/A   Clear
8:55 PM 42.8 °F 37.0 °F 33.8 °F 70% 29.64 in 10.0 mi South 10.4 mph - N/A   Clear
9:15 PM 42.8 °F 36.6 °F 32.0 °F 66% 29.63 in 10.0 mi South 11.5 mph - N/A   Clear
9:35 PM 42.8 °F 36.6 °F 32.0 °F 66% 29.62 in 10.0 mi South 11.5 mph - N/A   Clear
9:55 PM 42.8 °F 36.6 °F 32.0 °F 66% 29.61 in 10.0 mi South 11.5 mph - N/A   Clear
10:15 PM 42.8 °F 36.6 °F 32.0 °F 66% 29.61 in 10.0 mi South 11.5 mph - N/A   Clear
10:35 PM 39.2 °F 32.0 °F 30.2 °F 70% 29.59 in 10.0 mi South 11.5 mph - N/A   Clear
10:55 PM 41.0 °F 34.3 °F 32.0 °F 70% 29.59 in 10.0 mi SSW 11.5 mph - N/A   Clear
11:15 PM 42.8 °F 37.0 °F 30.2 °F 61% 29.58 in 10.0 mi SSW 10.4 mph - N/A   Clear
11:35 PM 39.2 °F 31.2 °F 30.2 °F 70% 29.57 in 10.0 mi SSW 13.8 mph - N/A   Clear
11:55 PM 41.0 °F 34.3 °F 30.2 °F 65% 29.57 in 10.0 mi SW 11.5 mph - N/A   Clear